Terug naar catalogus

STARLINK-36524

ActiefCommunicatieVLEO
NORAD 67452·PAYLOAD·🇺🇸 United States

Gelanceerd Jan 14, 2026 vanaf Cape Canaveral Space Force Station

Loading…

Volgende Passages (komende 24 uur)

TLE

VersSource: CelesTrak SupGP

Epoch: Sep 14, 2026, 22:33 UTC

1 67452C 26008H   26257.94006944  .00010256  00000+0  37142-3 0  2578
2 67452  43.0008 216.8764 0001380 261.2258 349.7923 15.27578116    14

Volg STARLINK-36524 in realtime met AllMySat

Download on the App Store